www.pogodaiklimat.ru

Погода и климат >> Архив погоды >> Россия >> Магаданская область >> Сусуман


ПОГОДА в Сусумане

  • Прогноз погоды в Сусумане
  • Монитор погоды в Сусумане
  • Климат города

АРХИВ ПОГОДЫ в Сусумане

Время (UTC), дата Ветер
(напр.,м/с)
 
Видим.   Явления Облачность Т
(С)
Тd
(С)
f
(%)
Тe
(С)
Тes
(С)
Комфортность P
(гПа)
Po
(гПа)
Тmin
(С)
Tmax
(С)
R
(мм)
R24
(мм)
S
(см)
06 9.12 штиль 0 50 км 9/0
[Ac trans Ci fib]
-33.1 -36.3 73 -33 -33 опасность
обморожения
1030.2 939.2
09 9.12 штиль 0 50 км 8/0
[Ac trans Ci fib]
-32.5 -35.7 73 -33 -33 опасность
обморожения
1029.9 939.2 -31.3
12 9.12 штиль 0 50 км 4/0
[Ci fib]
-33.3 -36.5 73 -33 -33 опасность
обморожения
1030.1 939.1
15 9.12 Ю 2 50 км ясно -34.2 -37.4 73 -42 -42 опасность
обморожения
1029.9 938.5
18 9.12 штиль 0 50 км ясно -35.4 -38.9 70 -35 -35 опасность
обморожения
1030.3 938.4
21 9.12 штиль 0 50 км ясно -34.7 -38.0 72 -35 -35 опасность
обморожения
1029.8 938.3 -36.0 30
00 10.12 штиль 0 50 км 6/0
[Ac trans Ci fib]
-34.8 -38.2 71 -35 -35 опасность
обморожения
1029.9 938.3
03 10.12 СВ 1 50 км 9/0
[Ci fib]
-31.0 -34.0 75 -35 -35 опасность
обморожения
1027.6 937.6
06 10.12 СВ 1 50 км 9/0
[Ac trans Cs]
-30.5 -33.4 76 -35 -35 опасность
обморожения
1026.8 937.0
09 10.12 штиль 0 50 км 9/0
[Ac As]
-30.7 -33.7 75 -31 -31 опасность
обморожения
1026.7 936.9 -30.3
12 10.12 штиль 0 50 км 9/0
[Ac As]
-33.3 -36.5 73 -33 -33 опасность
обморожения
1027.8 936.9
15 10.12 штиль 0 50 км 9/0
[Ac trans Ci fib]
-35.7 -39.1 71 -36 -36 опасность
обморожения
1029.2 937.4
18 10.12 штиль 0 50 км 9/0
[Ac trans Ci fib]
-35.1 -38.5 71 -35 -35 опасность
обморожения
1029.5 937.8
21 10.12 В 1 50 км 9/0
[Ac trans Ci fib]
-38.4 -42.2 67 -43 -43 опасность
обморожения
1031.0 938.0 -38.4 30
00 11.12 штиль 0 50 км 4/0
[Ac trans Ci fib]
-40.5 -44.5 65 -41 -41 опасность
обморожения
1032.2 938.3 -40.9
03 11.12 штиль 0 50 км 6/0
[Ci fib]
-36.3 -39.9 69 -36 -36 опасность
обморожения
1030.4 938.2
06 11.12 В 1 50 км 9/0
[Ci fib]
-39.3 -43.1 67 -44 -44 опасность
обморожения
1031.3 937.9
09 11.12 СВ 1 50 км 9/0
[Ci fib]
-40.8 -44.8 65 -46 -46 опасность
обморожения
1031.8 937.8 -36.1
12 11.12 СВ 1 50 км 8/0
[Ci fib]
-43.0 -47.4 62 -49 -49 опасность
обморожения
1032.4 937.5
15 11.12 СВ 1 50 км 9/0
[Ci fib]
-42.7 -47.0 62 -48 -48 опасность
обморожения
1032.0 937.2
18 11.12 штиль 0 50 км 9/0
[Ac trans Ci fib]
-42.9 -47.3 62 -43 -43 опасность
обморожения
1031.8 937.0
21 11.12 штиль 0 50 км 8/0
[Ac trans Ci fib]
-43.8 -48.2 61 -44 -44 опасность
обморожения
1032.0 936.8 -43.8 30
00 12.12 штиль 0 50 км 4/0
[Ci fib]
-44.0 -48.4 61 -44 -44 опасность
обморожения
1032.3 937.0 -44.3
03 12.12 штиль 0 50 км 3/0
[Ci fib]
-40.7 -44.9 64 -41 -41 опасность
обморожения
1030.6 936.7
06 12.12 В 1 50 км 4/0
[Ci fib]
-43.2 -47.6 62 -49 -49 опасность
обморожения
1031.5 936.6
09 12.12 штиль 0 50 км 3/0
[Ci fib]
-43.6 -48.0 61 -44 -44 опасность
обморожения
1031.7 936.6 -39.8
12 12.12 штиль 0 50 км 4/0
[Ci fib]
-44.2 -48.7 61 -44 -44 опасность
обморожения
1031.9 936.6
15 12.12 штиль 0 50 км 3/0
[Ci fib]
-45.1 -49.7 60 -45 -45 опасность
обморожения
1031.7 936.1
18 12.12 штиль 0 50 км 3/0
[Ci fib]
-45.5 -50.2 59 -46 -46 опасность
обморожения
1031.5 935.7
21 12.12 штиль 0 20 км туман местами 3/0
[Ci fib]
-45.3 -50.0 59 -45 -45 опасность
обморожения
1031.2 935.5 -45.7 30
00 13.12 Ю 1 20 км туман местами 3/0
[Ci fib]
-46.3 -51.1 58 -52 -52 опасность
обморожения
1031.4 935.3 -46.3
03 13.12 Ю 1 20 км ледяные иглы {снег} 3/0
[Ci fib]
-42.9 -47.5 60 -48 -48 опасность
обморожения
1029.0 934.5
06 13.12 ЮВ 1 20 км ледяные иглы {снег} ясно -45.3 -49.9 60 -51 -51 опасность
обморожения
1029.6 934.0
09 13.12 штиль 0 20 км ледяные иглы {снег} ясно -46.5 -51.3 58 -47 -47 опасность
обморожения
1030.4 934.3 -42.5
12 13.12 штиль 0 20 км ледяные иглы {снег} ясно -47.9 -52.8 57 -48 -48 опасность
обморожения
1030.8 934.1
15 13.12 СВ 1 20 км ледяные иглы {снег} ясно -48.0 -52.9 57 -54 -54 опасность
обморожения
1030.3 933.6
18 13.12 штиль 0 20 км ледяные иглы {снег} ясно -48.2 -53.1 57 -48 -48 опасность
обморожения
1029.8 933.1
21 13.12 штиль 0 20 км ледяные иглы {снег} ясно -48.7 -53.7 56 -49 -49 опасность
обморожения
1029.5 932.6 -48.7 30
00 14.12 штиль 0 20 км ледяные иглы {снег} ясно -47.8 -52.8 56 -48 -48 опасность
обморожения
1028.7 932.2 -48.8
03 14.12 штиль 0 20 км ледяные иглы {снег} ясно -45.1 -49.8 59 -45 -45 опасность
обморожения
1026.2 931.0
06 14.12 штиль 0 20 км ледяные иглы {снег} ясно -46.6 -51.4 58 -47 -47 опасность
обморожения
1026.1 930.4
09 14.12 Ю 1 20 км ледяные иглы {снег} ясно -46.5 -51.3 58 -52 -52 опасность
обморожения
1025.9 930.3 -45.1
12 14.12 штиль 0 20 км ледяные иглы {снег} ясно -47.5 -52.4 57 -48 -48 опасность
обморожения
1026.2 930.1
15 14.12 штиль 0 20 км ледяные иглы {снег} ясно -48.6 -53.7 55 -49 -49 опасность
обморожения
1026.5 929.9
18 14.12 штиль 0 20 км ледяные иглы {снег} ясно -48.9 -54.0 55 -49 -49 опасность
обморожения
1026.7 930.0
21 14.12 штиль 0 20 км ледяные иглы {снег} ясно -49.6 -54.8 54 -50 -50 опасность
обморожения
1027.2 930.1 -49.7 30
00 15.12 штиль 0 20 км ледяные иглы {снег} ясно -49.7 -54.8 55 -50 -50 опасность
обморожения
1027.8 930.6 -49.9
03 15.12 штиль 0 20 км ледяные иглы {снег} ясно -46.9 -51.8 57 -47 -47 опасность
обморожения
1025.9 930.1
06 15.12 штиль 0 20 км ледяные иглы {снег} ясно -49.8 -54.9 55 -50 -50 опасность
обморожения
1027.4 930.3
09 15.12 штиль 0 20 км ледяные иглы {снег} ясно -50.3 -55.6 53 -50 -50 опасность
обморожения
1028.3 930.9 -46.6
12 15.12 штиль 0 20 км ледяные иглы {снег} ясно -50.2 -55.5 53 -50 -50 опасность
обморожения
1028.1 930.7
15 15.12 штиль 0 20 км ледяные иглы {снег} ясно -50.2 -55.6 53 -50 -50 опасность
обморожения
1028.0 930.6
18 15.12 Ю 1 20 км ледяные иглы {снег} ясно -49.8 -55.0 54 -56 -56 опасность
обморожения
1027.8 930.6
21 15.12 штиль 0 20 км ледяные иглы {снег} ясно -49.5 -54.7 54 -50 -50 опасность
обморожения
1027.7 930.7 -50.5 30
00 16.12 штиль 0 20 км ледяные иглы {снег} ясно -49.1 -54.3 54 -49 -49 опасность
обморожения
1027.8 930.9

 

Местоположение метеостанции Сусуман (Магаданская область, Россия): широта 62.78 долгота 148.10 высота над уровнем моря 655 м.

В архиве по умолчанию представлена погода в Сусумане за последнюю неделю. Архивные данные за месяц целиком и за предыдущие месяцы, начиная с января 2011 года, Вы можете получить, выбрав интересующий диапазон дат из раскрывающегося списка и нажав кнопку "Ввод!".


*Определитесь, кто Вы:
робот инопланетянин человек

Внимание! Время в таблицах - всемирное. Для получения местного времени необходимо прибавить поправку, которая в Сусумане равна 11 ч.

Смотрите также архив погоды в соседних городах и на ближайших метеорологических станциях:

Погода в Ягодной (Магаданская область, Россия) (82 км)
Погода в Озере Джека Лондона (Магаданская область, Россия) (106 км)
Погода в Колымской (Магаданская область, Россия) (107 км)
Погода в Совхозе Эльген (Магаданская область, Россия) (127 км)
Погода в Усть-Бохапче (Магаданская область, Россия) (149 км)
Погода в Делянкире (Якутия, Россия) (171 км)
Погода в Усть-Омчуге (Магаданская область, Россия) (201 км)
Погода в Среднекане (Магаданская область, Россия) (218 км)
Погода в Сеймчане (Магаданская область, Россия) (219 км)
Погода в Оймяконе (Якутия, Россия) (258 км)

Пояснения к столбцам:

Ветер - указаны скорость ветра в м/с - средняя за 10 мин, порывы в срок и между сроками (в фигурных скобках) и направление, откуда дует ветер: С - северный, СВ - северо-восточный, В - восточный, ЮВ - юго-восточный, Ю - южный, ЮЗ - юго-западный, З - западный, СЗ - северо-западный.
Видимость - горизонтальная дальность видимости в метрах или километрах. При видимости от 1 до 10 км при отсутствии осадков обычно наблюдается дымка, при ухудшении видимости до 1 км и менее - туман. В сухую погоду видимость может ухудшаться дымом, пылью или мглою.
Явления - указаны атмосферные явления, наблюдавшиеся в срок или в последний час перед сроком; фигурными скобками обозначены явления, наблюдавшиеся между сроками (за 1-3 часа до срока); квадратными скобками обозначены град или гололедные отложения с указанием их диаметра в мм.
Облачность - указаны через наклонную черту общая и нижняя облачность в баллах и высота нижней границы облаков в метрах; квадратными скобками обозначены формы облаков: Ci - перистые, Cs - перисто-слоистые, Cc - перисто-кучевые, Ac - высококучевые, As - высокослоистые, Sc - слоисто-кучевые, Ns - слоисто-дождевые, Cu - кучевые, Cb - кучево-дождевые. Подробнее классификацию облаков см. в Атласе облаков (PDF).
T - Температура воздуха - температура, измеренная на высоте 2 м над землей.
Td - Температура точки росы - температура, при понижении до которой содержащийся в воздухе водяной пар достигнет насыщения.
f - Относительная влажность воздуха - влажноcть воздуха, измеренная на высоте 2 м над землей.
Te - Эффективная температура - температура, которую ощущает одетый по сезону человек в тени. Характеристика душности погоды. При расчете учитывается влияние влажности воздуха и скорости ветра на теплоощущения человека.
Tes - Эффективная температура на солнце - температура, которую ощущает человек, с поправкой на солнечный нагрев. Характеристика знойности погоды. Зависит от высоты солнца над горизонтом, облачности и скорости ветра. Ночью, в пасмурную погоду, а также при ветре 12 м/с и более поправка равна нулю.
P - Атмосферное давление - приведенное к уровню моря атмосферное давление.
Po - Атмосферное давление - измеренное на уровне метеостанции атмосферное давление.
Tmin - Минимальная температура - минимум температуры воздуха на высоте 2 м над землей.
Tmax - Максимальная температура - максимум температуры воздуха на высоте 2 м над землей.
R - Количество осадков - Количество выпавших осадков за период времени, мм. При наведении курсора мыши на число - период времени, за который выпало указанное количество осадков.
R24 - Количество осадков - Количество выпавших осадков за 24 часа, мм.
S - Снежный покров - Высота снежного покрова, см. При наведении курсора мыши на число - состояние снежного покрова и степень покрытия местности в баллах.